POEM

operational
NORAD ID: 52939 Int'l Des: 2022-072 Owner: ISRO Country: IN
LEOCIRCULAR

About POEM

Description loading...

Live Position

Loading 3D Globe...

Upcoming Passes

Altitude History

Altitude vs Time

uPlot chart will show altitude changes over time

Two-Line Element Set

1 52939U 22072E 26063.53884524 .00010801 00000-0 40633-3 0 9996
2 52939 9.9510 145.4732 0023278 84.1039 276.1829 15.22693025203529
Epoch: Mar 4, 2026 • Age: 22 hours

Current Status

Altitude 497.8 km
Velocity 7.62 km/s
Sub-Earth Point -1.72°S, 154.4°W
Launch Date Jun 30, 2022
Age 3.6 years
Type other

Technical Details

Classification Payload
Mass 50.00 kg
Dry Mass 50.00 kg
Total Mass 50.00 kg
Length 0.50 m
Diameter 0.30 m
Span 0.50 m
Shape Box
Manufacturer ISAC
Bus Type POEM
Phase Status Attached in Orbit
Owner/State ISRO/IN

Large Constellations

Loading constellations...